Flag for U.S.A. Weather past 2 weeks in Springfield, Illinois, U.S.A.

Now
85 °F

Sunny.


Feels Like: 95 °F
Forecast: 74 / 91 °F
Wind: 5 mph from Southwest

Location: Capital Airport

Current Time: Jul 28, 2015 at 10:49:46 AM

Latest Report: Jul 28, 2015 at 9:52 AM


Visibility: 10 mi

Pressure: 29.95 "Hg

Humidity: 77%

Dew point: 77 °F

Location of SpringfieldLocation

Historic Weather in Springfield — Graph

°F

Springfield temperature yesterday

Maximum temperature yesterday: 91 °F (at 1:52 PM)
Minimum temperature yesterday: 73 °F (at 3:52 AM)
Average temperature yesterday: 82 °F

Past Weeks' High & Low Weather Summary

 TemperatureHumidityPressure
High93 °F (Jul 13, 1:52 PM)94% (Jul 19, 8:52 AM)30.04 "Hg (Jul 19, 8:52 AM)
Low62 °F (Jul 22, 2:56 AM)44% (Jul 22, 10:52 AM)29.63 "Hg (Jul 14, 1:52 AM)
Average79 °F75%29.89 "Hg
* Reported Jul 13 8:52 AM — Jul 28 8:52 AM, Springfield, Weather by CustomWeather, © 2015

Note: Actual official high and low records may vary slightly from our data, if they occured in-between our weather recording intervals... More about our weather records

Advertising

Springfield weather history for previous 24 hours

 ConditionsComfort  
Time TempWeatherWind HumidityBarometerVisibility
8:52 AM
Tue, Jul 28
83 °FSunny.No wind77%29.95 "Hg10 mi
7:52 AM79 °FSunny.5 mph84%29.95 "Hg10 mi
6:52 AM77 °FClear.3 mph88%29.94 "Hg8 mi
5:52 AM75 °FClear.No wind94%29.93 "Hg7 mi
4:52 AM76 °FClear.3 mph91%29.93 "Hg8 mi
3:52 AM76 °FClear.No wind91%29.92 "Hg10 mi
2:52 AM78 °FClear.3 mph87%29.93 "Hg10 mi
1:52 AM79 °FClear.No wind84%29.93 "Hg10 mi
12:52 AM79 °FClear.5 mph84%29.93 "Hg10 mi
11:52 PM
Mon, Jul 27
79 °FClear.6 mph88%29.92 "Hg10 mi
10:52 PM79 °FLight rain. Partly cloudy.3 mph90%29.93 "Hg10 mi
9:52 PM81 °FClear.5 mph85%29.95 "Hg10 mi
8:52 PM81 °FSunny.No wind85%29.96 "Hg10 mi
7:52 PM84 °FSunny.No wind74%29.96 "Hg10 mi
6:52 PM86 °FSunny.6 mph70%29.91 "Hg10 mi
5:52 PM89 °FSunny.9 mph65%29.91 "Hg10 mi
4:52 PM89 °FMostly cloudy.8 mph61%29.90 "Hg10 mi
3:52 PM91 °FPassing clouds.5 mph57%29.90 "Hg10 mi
2:52 PM91 °FScattered clouds.8 mph57%29.92 "Hg10 mi
1:52 PM91 °FScattered clouds.No wind56%29.93 "Hg10 mi
12:52 PM90 °FBroken clouds.5 mph61%29.94 "Hg10 mi
11:52 AM88 °FPartly sunny.5 mph63%29.95 "Hg10 mi
10:52 AM87 °FPartly sunny.3 mph67%29.96 "Hg10 mi
Weather by CustomWeather, © 2015

See weather overviewHow to use our weather pages